Weather History for Bartow, FL

Change the Weather History Date:

Sunday, December 1, 2013

  Actual Average Record
Temperature  
Mean Temperature 64 °F -  
Max Temperature 69 °F 76 °F 89 °F (1931)
Min Temperature 60 °F 55 °F 31 °F (1957)
Growing Degree Days 14 (Base 50)    
Moisture  
Dew Point 63 °F    
Average Humidity 93    
Maximum Humidity 100    
Minimum Humidity 78    
Precipitation  
Precipitation 0.00 in - - ()
Sea Level Pressure  
Sea Level Pressure 30.10 in    
Wind  
Wind Speed 6 mph (NNE)    
Max Wind Speed 10 mph    
Max Gust Speed -    
Visibility 8 miles    
Events      
Averages and records for this station are not official NWS values.
T = Trace of Precipitation, MM = Missing Value Source: NWS Daily Summary

Daily Weather History Graph

Daily Weather History Graph

Search for Another Location

Airport:

Trip Planner

Search our weather history database for the weather conditions in past years. The results will help you decide how hot, cold, wet, or windy it might be!

Date:

Astronomy

Dec. 01, 2013 Rise Set
Actual Time 7:01 AM EST 5:31 PM EST
Civil Twilight 6:35 AM EST 5:56 PM EST
Nautical Twilight 6:06 AM EST 6:25 PM EST
Astronomical Twilight 5:38 AM EST 6:54 PM EST
Moon 5:24 AM EST (12/1) 4:34 PM EST (12/1)
Length of Visible Light 11h 20m
Length of Day
10h 29m
Waning Crescent, 2% of the Moon is Illuminated
Dec 1
Waning Crescent
Dec 2
New
Dec 9
First Quarter
Dec 17
Full
Dec 25
Last Quarter

Hourly Weather History & Observations

Time (EST) Temp. Dew Point Humidity Pressure Visibility Wind Dir Wind Speed Gust Speed Precip Events Conditions
12:15 AM 60.8 °F 60.8 °F 100% 30.20 in 10.0 mi North 9.2 mph - N/A   Overcast
12:35 AM 60.8 °F 60.8 °F 100% 30.20 in 10.0 mi North 10.4 mph - N/A   Overcast
12:55 AM 60.8 °F 60.8 °F 100% 30.19 in 10.0 mi North 10.4 mph - N/A   Overcast
1:15 AM 60.8 °F 60.8 °F 100% 30.18 in 10.0 mi North 8.1 mph - N/A   Overcast
1:35 AM 60.8 °F 60.8 °F 100% 30.17 in 10.0 mi North 6.9 mph - N/A   Overcast
1:55 AM 60.8 °F 60.8 °F 100% 30.16 in 10.0 mi NNE 8.1 mph - N/A   Overcast
2:15 AM 60.8 °F 60.8 °F 100% 30.16 in 8.0 mi NNE 9.2 mph - N/A   Overcast
2:35 AM 60.8 °F 60.8 °F 100% 30.16 in 5.0 mi NNE 9.2 mph - N/A   Overcast
2:55 AM 60.8 °F 60.8 °F 100% 30.16 in 3.0 mi North 9.2 mph - N/A   Overcast
3:15 AM 60.8 °F 60.8 °F 100% 30.16 in 2.5 mi North 8.1 mph - N/A   Overcast
3:35 AM 60.8 °F 60.8 °F 100% 30.15 in 1.8 mi North 6.9 mph - N/A   Overcast
3:55 AM 60.8 °F - N/A% 30.15 in 1.8 mi North 5.8 mph - N/A   Overcast
4:15 AM 60.8 °F - N/A% 30.15 in 1.5 mi North 5.8 mph - N/A   Overcast
4:35 AM 60.8 °F - N/A% 30.15 in 1.2 mi North 9.2 mph - N/A   Overcast
4:55 AM 60.8 °F - N/A% 30.15 in 1.2 mi North 5.8 mph - N/A   Overcast
5:15 AM 60.8 °F - N/A% 30.15 in 1.8 mi North 5.8 mph - N/A   Overcast
5:35 AM 60.8 °F - N/A% 30.15 in 3.0 mi North 6.9 mph - N/A   Overcast
5:55 AM 60.8 °F - N/A% 30.16 in 3.0 mi North 5.8 mph - N/A   Overcast
6:15 AM 60.8 °F - N/A% 30.16 in 5.0 mi North 5.8 mph - N/A   Haze
2:35 PM 68.0 °F 64.4 °F 88% 30.08 in 10.0 mi East 5.8 mph - N/A   Overcast
2:55 PM 69.8 °F 62.6 °F 78% 30.07 in 10.0 mi ENE 6.9 mph - N/A   Mostly Cloudy
3:15 PM 68.0 °F 62.6 °F 83% 30.07 in 10.0 mi NE 6.9 mph - N/A   Mostly Cloudy
3:35 PM 69.8 °F 62.6 °F 78% 30.06 in 10.0 mi NE 6.9 mph - N/A   Overcast
3:55 PM 69.8 °F 62.6 °F 78% 30.06 in 10.0 mi ENE 6.9 mph - N/A   Overcast
4:15 PM 69.8 °F 62.6 °F 78% 30.06 in 10.0 mi North 3.5 mph - N/A   Overcast
4:35 PM 68.0 °F 62.6 °F 83% 30.07 in 10.0 mi Calm Calm - N/A   Overcast
4:55 PM 68.0 °F 62.6 °F 83% 30.06 in 8.0 mi Calm Calm - N/A   Mostly Cloudy
5:15 PM 68.0 °F 62.6 °F 83% 30.06 in 10.0 mi Calm Calm - N/A   Mostly Cloudy
5:35 PM 68.0 °F 62.6 °F 83% 30.06 in 10.0 mi Calm Calm - N/A   Overcast
5:55 PM 68.0 °F 62.6 °F 83% 30.06 in 10.0 mi Calm Calm - N/A   Overcast
6:15 PM 66.2 °F 64.4 °F 94% 30.05 in 10.0 mi Calm Calm - N/A   Overcast
6:35 PM 66.2 °F 64.4 °F 94% 30.06 in 10.0 mi Calm Calm - N/A   Overcast
6:55 PM 66.2 °F 64.4 °F 94% 30.06 in 10.0 mi Calm Calm - N/A   Overcast
7:15 PM 66.2 °F 62.6 °F 88% 30.06 in 10.0 mi ENE 5.8 mph - N/A   Mostly Cloudy
7:35 PM 66.2 °F 62.6 °F 88% 30.06 in 10.0 mi ENE 6.9 mph - N/A   Mostly Cloudy
7:55 PM 66.2 °F 62.6 °F 88% 30.05 in 10.0 mi Calm Calm - N/A   Mostly Cloudy
8:15 PM 66.2 °F 64.4 °F 94% 30.06 in 10.0 mi Calm Calm - N/A   Mostly Cloudy
8:35 PM 66.2 °F 64.4 °F 94% 30.06 in 10.0 mi Calm Calm - N/A   Overcast
8:55 PM 66.2 °F 64.4 °F 94% 30.06 in 10.0 mi Calm Calm - N/A   Overcast
9:15 PM 66.2 °F 64.4 °F 94% 30.05 in 10.0 mi Calm Calm - N/A   Overcast
9:35 PM 66.2 °F 64.4 °F 94% 30.05 in 10.0 mi Calm Calm - N/A   Overcast
9:55 PM 64.4 °F 64.4 °F 100% 30.04 in 10.0 mi Calm Calm - N/A   Overcast
10:15 PM 64.4 °F 64.4 °F 100% 30.04 in 10.0 mi Calm Calm - N/A   Overcast
10:35 PM 64.4 °F 64.4 °F 100% 30.03 in 10.0 mi Calm Calm - N/A   Overcast
10:55 PM 64.4 °F 64.4 °F 100% 30.03 in 10.0 mi Calm Calm - N/A   Mostly Cloudy
11:15 PM 62.6 °F 62.6 °F 100% 30.02 in 10.0 mi Calm Calm - N/A   Partly Cloudy
11:35 PM 62.6 °F 62.6 °F 100% 30.01 in 10.0 mi Calm Calm - N/A   Clear
11:55 PM 62.6 °F 62.6 °F 100% 30.00 in 10.0 mi Calm Calm - N/A   Clear